Regional Weather Roundup
Issued by NWS

Home | Current Version | Previous Version | Text Only | Print | Product List | Glossary On
Versions: 1 2 3 4 5 6 7 8 9 10 11 12 13 14 15 16 17 18 19 20 21 22 23 24 25 26 27 28 29 30 31 32 33 34 35 36 37 38 39 40 41 42 43 44 45 46 47 48 49 50
000
ASUS44 KLIX 051623
RWRLA
LOUISIANA WEATHER ROUNDUP
NATIONAL WEATHER SERVICE NEW ORLEANS LA
1100 AM CDT SAT SEP 05 2015

NOTE: "FAIR" INDICATES FEW OR NO CLOUDS BELOW 12,000 FEET WITH NO
      SIGNIFICANT WEATHER AND/OR OBSTRUCTIONS TO VISIBILITY.
      SKY/WX - SKY CONDITION AND SIGNIFICANT WEATHER.
      TMP - AIR TEMPERATURE.    DP   - DEWPOINT TEMPERATURE.
      RH  - RELATIVE HUMIDITY.  PRES - PRESSURE.
      HX  - HEAT INDEX.         WCI  - WIND CHILL INDEX.

*  THESE STATIONS ARE NOT NWS OR FAA STATIONS AND ARE NOT UNDER
   NWS QUALITY CONTROL.

LAZ040-048-061>063-065-066-069-051700-
SOUTHEAST LOUISIANA

CITY           SKY/WX    TMP DP  RH WIND       PRES   REMARKS
N.O. AUDUBON     N/A     90 N/A N/A MISG        N/A
N.O. INTL ARPT PTSUNNY   86  75  69 VRB5      30.05S HX  95
N.O. LAKEFRONT MOSUNNY   85  77  77 NW8       30.06S HX  95
N.O. DOWNTOWN* PTSUNNY   88  75  66 CALM      30.06S HX  97
RESERVE*       FAIR      87  77  70 W3        30.06S HX  98
SLIDELL        SUNNY     88  76  67 NW6       30.04S HX  99
BATON ROUGE    PTSUNNY   87  76  69 VRB6      30.06S HX  97
BOOTHVILLE     MOSUNNY   86  76  71 NW10      30.06R HX  96
BELLE CHASSE   PTSUNNY   85  76  74 CALM      30.05S
BOGALUSA*      NOT AVBL
GALLIANO*      PTSUNNY   87  77  72 W6        30.05S HX  99
NEW ROADS*     FAIR      85  76  75 NW6       30.06S
GONZALES*      FAIR      85  74  69 NW3       30.05S
HAMMOND*       MOSUNNY   91  72  52 CALM      30.07S HX  98
HOUMA*         PTSUNNY   84  77  79 NW9       30.06S
PORT FOURCHON* SUNNY     81  73  78 CALM      30.06S

$$

LAZ041-044-053-054-051700-
SOUTHWEST LOUISIANA

CITY           SKY/WX    TMP DP  RH WIND       PRES   REMARKS
LAKE CHARLES   RAIN      82  75  79 W7        30.06R
LAFAYETTE      PTSUNNY   88  74  63 VRB3      30.06S HX  96
PATTERSON      SUNNY     86  75  70 NW5       30.08S HX  95
SALT POINT       N/A     85  79  82 W5        30.05R HX  98
NEW IBERIA     MOSUNNY   88  76  67 VRB3      30.07R HX  99
CHENAULT AIRPK MOSUNNY   86  73  66 CALM      30.05S

$$

LAZ027-028-051700-
CENTRAL LOUISIANA

CITY           SKY/WX    TMP DP  RH WIND       PRES   REMARKS
FORT POLK      PTSUNNY   86  73  66 W5        30.06S
ALEXANDRIA INT MOSUNNY   88  72  58 VRB3      30.04S
ALEXANDRIA     MOSUNNY   91  74  57 MISG      30.06R HX 100

$$

LAZ001-002-051700-
NORTHWEST LOUISIANA

CITY           SKY/WX    TMP DP  RH WIND       PRES   REMARKS
SHREVEPORT     PTSUNNY   88  75  65 SW7       30.05R HX  97
BARKSDALE AFB  MOSUNNY   86  73  66 VRB2      30.05R
DTN SHREVEPORT MOSUNNY   87  74  64 CALM      30.05S HX  95

$$

LAZ014-016-051700-
NORTHEAST LOUISIANA

CITY           SKY/WX    TMP DP  RH WIND       PRES   REMARKS
MONROE         SUNNY     91  76  61 CALM      30.05S HX 103
TALLULAH       MOSUNNY   90  74  59 CALM      30.05S HX  99

$$




USA.gov is the U.S. government's official web portal to all federal, state and local government web resources and services.